STARLINK-2450, 48113

Orbit data source: Space-Track

STARLINK-2450, 48113 is a payload satellite owned by SpaceX/Seattle (US) in LEO that was launched on Wed, 07 Apr 2021 UTC via an FALCON 9 launch vehicle from the Air Force Eastern Test Range (AFETR). Payload-class satellites include a variety of spacecraft equipped with specific instruments for various scientific and technological missions. These include communications satellites like Starlink; space stations such as the ISS; scientific satellites like the Hubble; Earth observation satellites from companies like Planet Labs, Umbra, and HawkEye 360; GPS; miniature CubeSats for education and research; and military/defense satellites.

Loading next visibility...
Identifier
48113, 2021-027X
Orbit
LEO
Country
Flag of USUS
Related business
Manufacturer
SpaceX/Seattle
Mission
Operational Commercial Communications
Bus & Motor
STARLINK, Unknown motor
Mass
260 kg wet, ~248 kg dry
Launch date (UTC)
2021-04-07 (5 years ago)
Launch vehicle
FALCON 9
Launch site
Air Force Eastern Test Range (AFETR)
Object type
Payload
Rocket body
Debris
Shape & HBR
Box + 1 Pan, 10.1 m
Radar Cross Section
13.562 m², Large (>1 m²)

Expand to show TLE details & history
Last TLE update: 2 days ago

TLE from 2 days ago
0 STARLINK-2450
1 48113U 21027X   26171.44774387 -.00008902  00000-0 -27511-3 0  9990
2 48113  53.1603  47.2481 0000776  96.8220 263.2869 15.31740367288247
Epoch: 2026-06-20T10:44Z
TLE epoch observation values (Epoch: 2026-06-20T10:44:45.070Z)
Latitude
-0.00008°
Longitude
-22.60198°
Altitude
471.582 km
Speed
7.631 km/s
True Right ascension
03h 08m 59s
True Declination
0° 00' 00"
Sunlit
Object was in daylight at epoch
Visualization orbit readout
Latitude
Unknown
Longitude
Unknown
Altitude
Unknown
Speed
Unknown
Apparent Right ascension
Unknown
Apparent Declination
Unknown
Sunlit
N/A
Visualization observer readout
Local Sidereal Time
21:25:17
Azimuth
Unknown
Elevation
Unknown
Doppler factor
Unknown
Orbital elements
Apogee altitude
471.408 km
Perigee altitude
470.345 km
Semi-major axis
6,849.013 km
Eccentricity
0.00008
Inclination
53.1603°
RAAN
47.2481°
Arg. of periapsis
96.822°
True anomaly
263.27807°
Mean anomaly
263.2869°
Eccentric anomaly
263.28248°
Mean motion
3.82914 °/min
Orbital period
94.02 mins
BSTAR
-0.00027511
Loading maneuver chart data...
Computing Atmospheric mass density...

Documentation

Showing up to 5 results
|